Preview of NWS' New Version of Forecast
This preview is not operational and should not be used for support decisions.

Regional Weather Roundup (RWR)

Issued by National Weather Service (NWS)

                            
000
ASUS45 KBOI 210810
RWRID 

IDAHO REGIONAL WEATHER ROUNDUP
NATIONAL WEATHER SERVICE BOISE ID
200 AM MDT SAT SEP 21 2019

NOTE: "FAIR" INDICATES FEW OR NO CLOUDS BELOW 12000 FEET
WITH NO SIGNIFICANT WEATHER AND/OR OBSTRUCTIONS TO VISIBILITY

IDZ012-014-210900-
SOUTHWEST IDAHO

  
CITY           SKY/WX    TMP DP  RH WIND       PRES   REMARKS
BOISE          CLEAR     50  43  77 S3        30.09R                  
CALDWELL       CLEAR     51  44  77 W6        30.10R                  
MOUNTAIN HOME  CLEAR     46  46  99 W5        30.10R                  
$$

IDZ016-017-210900-
SOUTHCENTRAL IDAHO

  
CITY           SKY/WX    TMP DP  RH WIND       PRES   REMARKS
BURLEY         CLOUDY    50  38  63 SW10      30.09R                  
JEROME         CLEAR     46  39  76 W8        30.10R                  
TWIN FALLS     CLEAR     45  38  76 SW13      30.11R                  
$$

IDZ019>023-210900-
SOUTHEAST IDAHO

  
CITY           SKY/WX    TMP DP  RH WIND       PRES   REMARKS
IDAHO FALLS    CLOUDY    46  43  89 S8        30.10R                  
POCATELLO      LGT RAIN  50  42  74 SW13      30.10R                  
REXBURG        CLOUDY    45  43  93 NE3       30.10R                  
$$

IDZ006-010-011-018-031-032-210900-
CENTRAL IDAHO MOUNTAINS

  
CITY           SKY/WX    TMP DP  RH WIND       PRES   REMARKS
MCCALL         PTCLDY    46  38  73 N5        30.12R                  
HAILEY         PTCLDY    39  37  93 NW7       30.12R WCI  34          
STANLEY          N/A     31  28  89 CALM      30.15R                  
SALMON         CLOUDY    46  42  86 NW3       30.09R                  
CHALLIS        PTCLDY    40  34  79 W6        30.10R                  
$$

IDZ002-004-006-007-026-210900-
NORTHERN IDAHO

  
CITY           SKY/WX    TMP DP  RH WIND       PRES   REMARKS
LEWISTON       PTCLDY    58  49  72 CALM      30.07R                  
LOWELL           N/A     54  53  97 CALM      30.11R                  
COEUR D'ALENE  CLEAR     51  50  96 S5        30.06R                  
MULLAN PASS    FOG       41  40  96 NW6       30.10R VSB 1/4          
$$